Weather History for Scappoose, OR

Change the Weather History Date:

Saturday, December 8, 2012

  Actual Average Record
Temperature  
Mean Temperature 40 °F -  
Max Temperature 45 °F - 55 °F (2010)
Min Temperature 34 °F - 5 °F (2013)
Degree Days  
Heating Degree Days 25    
Month to date heating degree days 160  
Since 1 July heating degree days 1246  
Cooling Degree Days 0    
Month to date cooling degree days 0  
Year to date cooling degree days 245  
Moisture  
Dew Point 37 °F    
Average Humidity 92    
Maximum Humidity 100    
Minimum Humidity 83    
Precipitation  
Precipitation 0.12 in - 1.08 in (2010)
Month to date precipitation 2.42  
Year to date precipitation 48.29  
Sea Level Pressure  
Sea Level Pressure 30.28 in    
Wind  
Wind Speed 0 mph (NNW)    
Max Wind Speed 7 mph    
Max Gust Speed 8 mph    
Visibility 10 miles    
Events Rain    
T = Trace of Precipitation, MM = Missing Value Source: NWS Daily Summary

Daily Weather History Graph

Daily Weather History Graph

Search for Another Location

Airport:

Trip Planner

Search our weather history database for the weather conditions in past years. The results will help you decide how hot, cold, wet, or windy it might be!

Date:

Astronomy

Dec. 08, 2012 Rise Set
Actual Time 7:40 AM PST 4:26 PM PST
Civil Twilight 7:06 AM PST 5:01 PM PST
Nautical Twilight 6:28 AM PST 5:38 PM PST
Astronomical Twilight 5:52 AM PST 6:14 PM PST
Moon 1:57 AM PST (12/8) 1:11 PM PST (12/8)
Length of Visible Light 9h 55m
Length of Day
8h 46m
Waning Crescent, 27% of the Moon is Illuminated
Dec 8
Waning Crescent
Dec 13
New
Dec 19
First Quarter
Dec 28
Full
Jan 4
Last Quarter

Hourly Weather History & Observations

Time (PST) Temp. Windchill Dew Point Humidity Pressure Visibility Wind Dir Wind Speed Gust Speed Precip Events Conditions
12:53 AM 39.0 °F - 36.0 °F 89% 30.22 in 10.0 mi Calm Calm - N/A   Overcast
1:53 AM 37.0 °F - 36.0 °F 96% 30.22 in 10.0 mi Calm Calm - N/A   Overcast
3:53 AM 35.1 °F - 34.0 °F 96% 30.22 in 10.0 mi Calm Calm - N/A   Scattered Clouds
4:53 AM 34.0 °F - 33.1 °F 96% 30.23 in 10.0 mi Calm Calm - N/A   Partly Cloudy
5:22 AM 35.6 °F 32.8 °F 33.8 °F 93% 30.23 in 10.0 mi NNW 3.5 mph - N/A   Mostly Cloudy
5:30 AM 35.6 °F 31.7 °F 33.8 °F 93% 30.23 in 10.0 mi West 4.6 mph - N/A   Overcast
5:53 AM 36.0 °F - 34.0 °F 93% 30.24 in 10.0 mi Calm Calm - N/A   Scattered Clouds
6:53 AM 34.0 °F - 33.1 °F 96% 30.25 in 10.0 mi Calm Calm - N/A   Overcast
7:53 AM 36.0 °F - 34.0 °F 93% 30.25 in 10.0 mi Calm Calm - N/A   Overcast
8:53 AM 37.0 °F - 35.1 °F 93% 30.26 in 10.0 mi Calm Calm - N/A   Scattered Clouds
9:32 AM 39.2 °F - 37.4 °F 93% 30.27 in 10.0 mi Calm Calm - N/A   Mostly Cloudy
9:41 AM 39.2 °F - 37.4 °F 93% 30.28 in 10.0 mi Calm Calm - N/A   Overcast
9:53 AM 39.9 °F - 37.0 °F 89% 30.28 in 10.0 mi Calm Calm - N/A   Overcast
10:06 AM 39.2 °F - 37.4 °F 93% 30.29 in 10.0 mi Calm Calm - N/A   Overcast
10:53 AM 41.0 °F - 37.9 °F 89% 30.29 in 9.0 mi Calm Calm - 0.00 in Rain Light Rain
11:17 AM 42.8 °F - 39.2 °F 87% 30.29 in 10.0 mi Calm Calm - 0.00 in   Overcast
11:53 AM 42.1 °F - 39.0 °F 89% 30.28 in 10.0 mi Calm Calm - 0.00 in   Mostly Cloudy
12:49 PM 44.6 °F - 39.2 °F 81% 30.27 in 10.0 mi Calm Calm - N/A   Overcast
12:53 PM 44.1 °F - 39.9 °F 85% 30.27 in 10.0 mi Calm Calm - N/A   Overcast
1:00 PM 44.6 °F - 39.2 °F 81% 30.27 in 10.0 mi Calm Calm - N/A   Mostly Cloudy
1:53 PM 45.0 °F - 39.9 °F 82% 30.27 in 10.0 mi Calm Calm - 0.00 in   Overcast
2:51 PM 44.6 °F 43.1 °F 41.0 °F 87% 30.28 in 8.0 mi North 3.5 mph - 0.01 in Rain Light Rain
2:53 PM 44.1 °F 42.5 °F 41.0 °F 89% 30.28 in 8.0 mi North 3.5 mph - 0.01 in Rain Light Rain
3:32 PM 42.8 °F - 39.2 °F 87% 30.29 in 9.0 mi Calm Calm - 0.04 in Rain Light Rain
3:53 PM 43.0 °F - 39.0 °F 86% 30.29 in 8.0 mi Calm Calm - 0.05 in Rain Light Rain
4:18 PM 42.8 °F - 39.2 °F 87% 30.30 in 10.0 mi Calm Calm - 0.01 in Rain Light Rain
4:39 PM 42.8 °F - 39.2 °F 87% 30.29 in 10.0 mi Calm Calm - 0.01 in Rain Light Rain
4:53 PM 42.1 °F - 39.9 °F 92% 30.30 in 10.0 mi Calm Calm - 0.01 in Rain Light Rain
5:53 PM 41.0 °F - 39.0 °F 93% 30.31 in 10.0 mi Calm Calm - 0.01 in   Overcast
6:40 PM 41.0 °F - 37.4 °F 87% 30.32 in 10.0 mi Calm Calm - N/A   Overcast
6:53 PM 39.9 °F - 37.9 °F 93% 30.32 in 10.0 mi Calm Calm - N/A   Overcast
7:53 PM 39.9 °F - 37.9 °F 93% 30.33 in 10.0 mi Calm Calm - 0.00 in   Overcast
8:53 PM 39.9 °F - 37.9 °F 93% 30.34 in 10.0 mi Calm Calm - 0.01 in Rain Light Rain
9:53 PM 39.9 °F - 37.9 °F 93% 30.35 in 10.0 mi Calm Calm - 0.02 in Rain Light Rain
10:53 PM 39.0 °F - 37.0 °F 93% 30.36 in 10.0 mi Calm Calm - 0.01 in   Overcast
11:53 PM 39.0 °F - 37.9 °F 96% 30.37 in 7.0 mi Calm Calm - 0.00 in Rain Light Rain